FREGAT DEB (TANK)

基本信息
目录编号:
43089
目录名称:
FREGAT DEB (TANK)
国际标识:
2017-086C
轨道中心:
EARTH
物体状态:
在轨
发射日期:
2017-12-26 UTC
轨道信息
数据来源: 国际轨道数据
星历时间: 2026-07-13T08:34:51+0800
半长轴: 7616.826km
偏心率: 0.1277114
轨道倾角: 50.355°
近地点辐角: 313.322°
升交点赤经: 192.541°
平近点角: 36.782°
近地点: 265.933km
远地点: 2211.445km
周期: 110.261分钟
每日圈数: 13.059957
详细信息
发射场:
TTMTR
轨道高度:
LEO
数据来源:
AOE Integration Group
参考系:
TEME
时间系统:
UTC
历元类型:
SGP4
2D轨道图
3D轨道图
轨道高度分析图
轨道倾角分析图
轨道综合分析图
查看轨道综合分析图